www.pogodaiklimat.ru

Погода и климат >> Архив погоды >> Индия >> Pune


ПОГОДА в Pune

  • Прогноз погоды в Pune
  • Монитор погоды в Pune
  • Климат города

АРХИВ ПОГОДЫ в Pune

Время (UTC), дата Ветер
(напр.,м/с)
 
Видим.   Явления Облачность Т
(С)
Тd
(С)
f
(%)
Тe
(С)
Тes
(С)
Комфортность P
(гПа)
Po
(гПа)
Тmin
(С)
Tmax
(С)
R
(мм)
R24
(мм)
S
(см)
06 17.06 З 2 4000 м слабый дождь 10/10 660 м
[Frnb]
+27.2 +20.1 65 +33 +33 очень
душно
1007.3 946.2 2
09 17.06 З 2 4000 м слабый дождь 10/10 660 м
[Frnb]
+26.0 +21.3 75 +33 +33 очень
душно
1006.2 944.8 5
12 17.06 штиль 0 4000 м {дождь} 9/9 660 м
[Frnb]
+24.4 +21.5 84 +31 +31 очень
душно
1005.5 943.8 +27.9 7
15 17.06 З 2 4000 м 9/9 660 м
[Frnb]
+24.2 +20.3 79 +30 +30 очень
душно
1006.0 944.3 7
18 17.06 З 1 4000 м 9/9 660 м
[Frnb]
+23.6 +21.2 86 +30 +30 очень
душно
1006.3 944.4 7
21 17.06 З 2 4000 м 8/8 660 м
[Frnb]
+23.2 +20.2 83 +30 +30 очень
душно
1004.8 943.0 7
00 18.06 З 2 4000 м 9/9 660 м
[Frnb]
+23.8 +21.2 85 +30 +30 очень
душно
1004.2 942.5 7
03 18.06 ЮЗ 1 10 км 9/9 660 м
[Frnb]
+25.0 +21.8 82 +32 +33 очень
душно
1005.4 943.7 +22.5 7
06 18.06 З 1 10 км 9/6 660 м
[Frnb Ac trans]
+27.0 +21.2 71 +34 +40 очень
душно
1005.5 944.3
09 18.06 З 1 10 км в посл. час дождь 9/8 660 м
[Frnb Ac trans]
+27.6 +21.8 71 +36 +39 очень
душно
1003.3 943.3 0.0
12 18.06 З 1 4000 м слабый дождь 9/9 660 м
[Frnb]
+27.2 +20.4 66 +34 +34 очень
душно
1003.4 942.5 +28.7 0.0
15 18.06 З 1 4000 м 9/6 <50 м
[Frnb Ac trans]
+25.0 +20.6 77 +31 +31 очень
душно
1004.6 943.0 0.0
18 18.06 З 1 4000 м 8/5 660 м
[Frnb Ac trans]
+23.6 +20.9 85 +30 +30 очень
душно
1005.5 943.6 0.0
21 18.06 З 1 4000 м 8/5 660 м
[Frnb Ac trans]
+23.0 +20.6 86 +30 +30 очень
душно
1004.0 942.1 0.0
00 19.06 штиль 0 4000 м 8/4 800 м
[Sc Ci fib]
+23.2 +20.8 86 +31 +31 очень
душно
1003.6 941.9 0.0
03 19.06 З 1 10 км 8/3 800 м
[Sc Ac trans Ci fib]
+25.8 +22.0 80 +33 +37 очень
душно
1005.4 944.0 +23.6 0.0
06 19.06 З 1 10 км 8/5 800 м
[Cu Sc Ac trans Cc]
+30.6 +21.4 58 +39 +48 очень
душно
1003.5 943.1
09 19.06 З 3 10 км гроза без осадков 6/6 800 м
[Cb cap]
+30.2 +22.8 65 +40 +46 очень
душно
1001.8 941.5
12 19.06 З 2 10 км {гроза} 9/6 800 м
[Cu Sc Ac trans Ci fib]
+29.8 +22.7 66 +39 +40 очень
душно
1001.6 941.1 +33.0
15 19.06 З 1 4000 м {гроза} 8/6 800 м
[Sc Ac trans]
+25.8 +21.7 78 +33 +33 очень
душно
1004.3 943.0
18 19.06 З 1 4000 м {гроза, дождь} 6/4 800 м
[Sc Ac trans]
+25.4 +22.8 86 +34 +34 очень
душно
1004.2 942.9 0.0
21 19.06 З 1 4000 м 4/4 800 м
[Sc]
+25.0 +23.0 89 +33 +33 очень
душно
1003.8 942.3 0.0
00 20.06 штиль 0 4000 м 5/3 800 м
[Sc Ac trans Ci fib]
+23.6 +22.7 95 +31 +31 очень
душно
1003.9 942.2 0.0
03 20.06 З 1 10 км 6/4 800 м
[Cu Sc Ac trans Ci fib]
+27.0 +22.4 76 +35 +40 очень
душно
1004.7 943.5 +22.9 0.0
06 20.06 штиль 0 10 км 6/5 800 м
[Cu Sc Ci fib]
+31.4 +22.5 59 +41 +54 опасность
перегрева
1003.6 943.4
09 20.06 З 1 10 км 8/5 800 м
[Cu Sc Ci fib]
+33.9 +21.5 48 +42 +51 опасность
перегрева
1000.2 940.7
12 20.06 З 1 10 км {дождь} 8/6 800 м
[Cu Sc Ci fib]
+30.4 +22.8 64 +40 +41 очень
душно
1000.1 940.0 +34.2 0.3
15 20.06 З 1 4000 м 8/5 800 м
[Sc Ac trans]
+28.0 +23.2 75 +38 +38 очень
душно
1002.9 942.0 0.3
18 20.06 З 1 4000 м 8/3 800 м
[Sc Ac trans]
+26.2 +21.2 74 +33 +33 очень
душно
1004.6 943.4 0.3
21 20.06 штиль 0 4000 м 5/3 800 м
[Sc Ac trans]
+25.6 +22.7 84 +34 +34 очень
душно
1003.0 941.7 0.3
00 21.06 штиль 0 4000 м 4/3 800 м
[Sc Ac trans]
+25.2 +22.9 87 +33 +33 очень
душно
1003.2 941.9 0.3
03 21.06 СЗ 1 10 км 9/4 800 м
[Sc Ci fib]
+26.2 +23.1 83 +35 +39 очень
душно
1004.4 943.2 +24.3 0.3
06 21.06 штиль 0 10 км 9/5 800 м
[Cu Sc Ac trans Ci fib]
+31.0 +22.5 61 +41 +49 опасность
перегрева
1003.6 943.2
09 21.06 З 2 10 км 9/5 800 м
[Cu Sc Ac trans Ci fib]
+31.8 +21.5 54 +40 +45 очень
душно
1000.4 940.5
12 21.06 З 3 4000 м гроза, ливневой дождь 10/8 800 м
[Cb cap Ac trans]
+22.8 +22.2 96 +31 +31 очень
душно
1003.2 941.3 +33.6 55
15 21.06 штиль 0 4000 м слабый ливневой дождь, в посл. час гроза 10/8 800 м
[Frnb As op]
+23.2 +22.3 95 +32 +32 очень
душно
1005.6 943.7 62
18 21.06 З 1 4000 м слабый дождь {гроза} 10/8 660 м
[Frnb As op]
+23.2 +22.0 93 +32 +32 очень
душно
1006.4 944.5 65
21 21.06 штиль 0 4000 м {дождь} 9/6 660 м
[Frnb Ac trans]
+23.2 +22.0 93 +32 +32 очень
душно
1004.5 942.8 65
00 22.06 0 {дождь} н/о +23.8 +21.8 89 +31 +31 очень
душно
1004.4 942.7 65
03 22.06 З 1 10 км 9/4 800 м
[Sc Ac trans Ci fib]
+25.0 +22.7 87 +33 +36 очень
душно
1005.6 943.9 +22.3 65
06 22.06 З 2 10 км 9/3 800 м
[Sc Ac trans Ci fib]
+28.0 +22.3 71 +37 +45 очень
душно
1004.8 943.8
09 22.06 З 1 10 км 8/5 800 м
[Cu Sc Ci fib]
+30.4 +22.1 61 +39 +48 очень
душно
1002.2 941.9
12 22.06 З 6 10 км {дождь} 9/6 800 м
[Cu Sc Ac trans Ci fib]
+27.6 +22.5 74 +36 +37 очень
душно
1001.6 940.9 +31.1 0.0
15 22.06 З 3 4000 м 10/4 800 м
[Sc Ac trans Ci fib]
+25.0 +21.8 82 +32 +32 очень
душно
1004.9 943.2 0.0
18 22.06 З 2 4000 м в посл. час дождь 9/4 800 м
[Sc Ac trans Ci fib]
+23.4 +20.7 85 +31 +31 очень
душно
1005.6 943.7 0.1
21 22.06 штиль 0 4000 м 6/3 800 м
[Sc Ac trans Ci fib]
+23.4 +21.9 91 +32 +32 очень
душно
1004.0 942.3 0.1
00 23.06 З 2 4000 м 8/4 800 м
[Sc Ac trans Ci fib]
+23.4 +21.3 88 +31 +31 очень
душно
1003.3 941.6 0.1
03 23.06 З 2 10 км 9/6 800 м
[Cu Sc Ac trans]
+26.2 +21.6 76 +34 +35 очень
душно
1004.5 943.3 +22.9 0.1
06 23.06 З 2 10 км 9/5 800 м
[Cu Sc Ac trans]
+27.6 +19.2 60 +33 +38 очень
душно
1004.4 943.4
09 23.06 Ю 1 10 км 6/4 600 м
[Cu Sc Ac trans Ci fib]
+33.0 +21.2 50 +41 +51 опасность
перегрева
1000.6 941.8
12 23.06 З 3 10 км 8/5 800 м
[Cu Sc Ac trans]
+26.2 +20.9 73 +33 +34 очень
душно
1002.1 941.0 +29.6
15 23.06 З 2 4000 м слабый дождь 9/9 600 м
[Frnb]
+23.8 +21.5 87 +30 +30 очень
душно
1005.3 943.4 0.0
18 23.06 З 1 4000 м слабый дождь 9/9 660 м
[Frnb]
+22.4 +21.2 93 +29 +29 очень
душно
1005.8 943.7 0.5
21 23.06 З 1 4000 м {дождь} 8/5 800 м
[Sc Ac trans]
+22.2 +20.7 91 +29 +29 очень
душно
1003.9 942.0 0.5
00 24.06 З 1 4000 м {дождь} 8/6 800 м
[Sc Ac trans]
+22.6 +21.1 91 +30 +30 очень
душно
1003.9 942.0 0.5

 

Местоположение метеостанции Pune (Maharashtra, Индия): широта 18.53 долгота 73.85 высота над уровнем моря 559 м.

В архиве по умолчанию представлена погода в Pune за последнюю неделю. Архивные данные за месяц целиком и за предыдущие месяцы, начиная с января 2011 года, Вы можете получить, выбрав интересующий диапазон дат из раскрывающегося списка и нажав кнопку "Ввод!".


*Определитесь, кто Вы:
робот инопланетянин человек

Внимание! Время в таблицах - всемирное. Для получения местного времени необходимо прибавить поправку, которая в Pune равна 5.5 ч.

Смотрите также архив погоды в соседних городах и на ближайших метеорологических станциях:

Погода в Bhira (Maharashtra, Индия) (48 км)
Погода в Mahabaleshwar (Maharashtra, Индия) (69 км)
Погода в Matheran (Maharashtra, Индия) (78 км)
Погода в Alibag (Maharashtra, Индия) (104 км)
Погода в Harnai (Maharashtra, Индия) (112 км)
Погода в Satara (Maharashtra, Индия) (114 км)
Погода в Mumbai Colaba (Maharashtra, Индия) (116 км)
Погода в Ahmednagar (Maharashtra, Индия) (117 км)
Погода в Mumbai (Maharashtra, Индия) (124 км)
Погода в Jeur (Maharashtra, Индия) (141 км)

Пояснения к столбцам:

Ветер - указаны скорость ветра в м/с - средняя за 10 мин, порывы в срок и между сроками (в фигурных скобках) и направление, откуда дует ветер: С - северный, СВ - северо-восточный, В - восточный, ЮВ - юго-восточный, Ю - южный, ЮЗ - юго-западный, З - западный, СЗ - северо-западный.
Видимость - горизонтальная дальность видимости в метрах или километрах. При видимости от 1 до 10 км при отсутствии осадков обычно наблюдается дымка, при ухудшении видимости до 1 км и менее - туман. В сухую погоду видимость может ухудшаться дымом, пылью или мглою.
Явления - указаны атмосферные явления, наблюдавшиеся в срок или в последний час перед сроком; фигурными скобками обозначены явления, наблюдавшиеся между сроками (за 1-3 часа до срока); квадратными скобками обозначены град или гололедные отложения с указанием их диаметра в мм.
Облачность - указаны через наклонную черту общая и нижняя облачность в баллах и высота нижней границы облаков в метрах; квадратными скобками обозначены формы облаков: Ci - перистые, Cs - перисто-слоистые, Cc - перисто-кучевые, Ac - высококучевые, As - высокослоистые, Sc - слоисто-кучевые, Ns - слоисто-дождевые, Cu - кучевые, Cb - кучево-дождевые. Подробнее классификацию облаков см. в Атласе облаков (PDF).
T - Температура воздуха - температура, измеренная на высоте 2 м над землей.
Td - Температура точки росы - температура, при понижении до которой содержащийся в воздухе водяной пар достигнет насыщения.
f - Относительная влажность воздуха - влажноcть воздуха, измеренная на высоте 2 м над землей.
Te - Эффективная температура - температура, которую ощущает одетый по сезону человек в тени. Характеристика душности погоды. При расчете учитывается влияние влажности воздуха и скорости ветра на теплоощущения человека.
Tes - Эффективная температура на солнце - температура, которую ощущает человек, с поправкой на солнечный нагрев. Характеристика знойности погоды. Зависит от высоты солнца над горизонтом, облачности и скорости ветра. Ночью, в пасмурную погоду, а также при ветре 12 м/с и более поправка равна нулю.
P - Атмосферное давление - приведенное к уровню моря атмосферное давление.
Po - Атмосферное давление - измеренное на уровне метеостанции атмосферное давление.
Tmin - Минимальная температура - минимум температуры воздуха на высоте 2 м над землей.
Tmax - Максимальная температура - максимум температуры воздуха на высоте 2 м над землей.
R - Количество осадков - Количество выпавших осадков за период времени, мм. При наведении курсора мыши на число - период времени, за который выпало указанное количество осадков.
R24 - Количество осадков - Количество выпавших осадков за 24 часа, мм.
S - Снежный покров - Высота снежного покрова, см. При наведении курсора мыши на число - состояние снежного покрова и степень покрытия местности в баллах.